Hourly Weather Roundup
Issued by NWS Central Illinois

Home | Current Version | Previous Version | Text Only | Print | Product List | Glossary On
Versions: 1 2 3 4 5 6 7 8 9 10 11 12 13 14 15 16 17 18 19 20 21 22 23 24 25 26 27 28 29 30 31 32 33 34 35 36 37 38 39 40 41 42 43 44 45 46 47 48 49 50
000
NZUS43 KILX 211610
HWRILX

AREA WEATHER ROUNDUP
NATIONAL WEATHER SERVICE, LINCOLN IL
1100 AM CDT THU JUL 21 2016


CITY           SKY/WX    TMP DP  RH WIND       PRES   REMARKS
BLOOMINGTON    SUNNY     85  78  80 SW10      30.12R HX  96
CHAMPAIGN      SUNNY     86  77  74 S12       30.12F HX  97
DANVILLE       MOSUNNY   85  79  83 SW10      30.11R HAZE    HX  97
DECATUR        SUNNY     89  77  67 SW13      30.11F HX 101
EFFINGHAM      SUNNY     87  78  75 S8        30.14F HX 100
FLORA          SUNNY     87  78  73 S6        30.15S HX 100
GALESBURG      SUNNY     88  78  72 S12       30.07S HX 102
JACKSONVILLE   SUNNY     87  80  78 S5        30.09F HX 102
LACON          SUNNY     86  77  74 SW7       30.08R HX  98
LAWRENCEVILLE  SUNNY     86  76  71 SW9       30.15S HX  96
LITCHFIELD     SUNNY     85  77  76 S8        30.13S HX  96
$$


CITY           SKY/WX    TMP DP  RH WIND       PRES   REMARKS
LINCOLN        SUNNY     88  80  79 S5        30.10R HX 104
MACOMB         SUNNY     88  79  75 SW8       30.09S HX 102
MATTOON        SUNNY     85  76  74 S10       30.13S HX  94
MT CARMEL AP   SUNNY     85  76  74 S5        30.15S HX  95
OLNEY-NOBLE AP SUNNY     84  77  79 S6        30.15S HX  94
PARIS          MOSUNNY   85  80  83 S6        30.14S HX  99
PEORIA         SUNNY     86  80  82 S6        30.09R HX 101
PONTIAC        PTSUNNY   88  82  81 SW7       30.12R HX 106
RANTOUL        NOT AVBL
ROBINSON       MOSUNNY   86  77  75 SW7       30.15F HX  97
SPRINGFIELD    SUNNY     89  79  72 SW8       30.10S HX 104
TAYLORVILLE    SUNNY     86  80  82 N7        30.11S HX 100
$$

...REGIONAL REPORTS...


CITY           SKY/WX    TMP DP  RH WIND       PRES   REMARKS
CHICAGO O`HARE CLOUDY    88  77  69 W9        30.08S HX 100
KANKAKEE       NOT AVBL
MOLINE         SUNNY     90  78  68 S9        30.04S HX 104
MOUNT STERLING SUNNY     88  78  72 S7        30.08S HX 102
MOUNT VERNON   SUNNY     90  75  62 SW7       30.15F HX 100
PITTSFIELD     SUNNY     87  80  78 S5        30.10F HX 103
QUINCY         SUNNY     90  78  68 S12       30.07F HX 104
ROCKFORD       CLOUDY    86  77  74 S7        30.08S HX  97
$$


CITY           SKY/WX    TMP DP  RH WIND       PRES   REMARKS
BURLINGTON     SUNNY     88  79  74 S9        30.05S HX 103
CEDAR RAPIDS   SUNNY     88  80  77 S12       30.01R HX 104
DES MOINES     MOSUNNY   91  75  59 SW13      29.95S HX 101
KIRKSVILLE     SUNNY     91  77  63 SW12      30.07S HX 104
OTTUMWA        SUNNY     88  77  69 SW10      29.99F HX 100
ST LOUIS       MOSUNNY   93  76  57 CALM      30.12S HX 105
$$


CITY           SKY/WX    TMP DP  RH WIND       PRES   REMARKS
TERRE HAUTE    MOSUNNY   86  76  71 SW12      30.14S HX  96
EVANSVILLE     SUNNY     86  75  69 SW9       30.16F HX  95
INDIANAPOLIS   MOSUNNY   85  73  67 S6        30.17R HX  91
LAFAYETTE      PTSUNNY   84  78  82 SW7       30.12S HX  95
MADISON        CLOUDY    77  68  73 E7        30.05F
MILWAUKEE      CLOUDY    79  67  66 NW25G45   30.14R SQUALL  HX  81
$$






USA.gov is the U.S. government's official web portal to all federal, state and local government web resources and services.